TimeEDT,TemperatureF,Dew PointF,Humidity,Sea Level PressureIn,VisibilityMPH,Wind Direction,Wind SpeedMPH,Gust SpeedMPH,PrecipitationIn,Events,Conditions,WindDirDegrees,DateUTC
12:53 AM,70.0,63.0,78,30.11,10.0,SSW,4.6,-,N/A,,Clear,200,2013-06-24 04:53:00
1:53 AM,68.0,64.0,87,30.10,10.0,Calm,Calm,-,N/A,,Clear,0,2013-06-24 05:53:00
2:53 AM,66.0,64.0,93,30.10,7.0,Calm,Calm,-,N/A,,Clear,0,2013-06-24 06:53:00
3:53 AM,64.9,63.0,93,30.10,8.0,Calm,Calm,-,N/A,,Clear,0,2013-06-24 07:53:00
4:53 AM,64.0,62.1,93,30.11,8.0,Calm,Calm,-,N/A,,Clear,0,2013-06-24 08:53:00
5:53 AM,63.0,62.1,97,30.11,6.0,Calm,Calm,-,N/A,,Clear,0,2013-06-24 09:53:00
6:53 AM,64.0,63.0,96,30.12,5.0,Calm,Calm,-,N/A,,Clear,0,2013-06-24 10:53:00
7:53 AM,69.1,64.9,87,30.14,10.0,Calm,Calm,-,N/A,,Clear,0,2013-06-24 11:53:00
8:53 AM,73.9,64.0,71,30.14,10.0,South,3.5,-,N/A,,Clear,190,2013-06-24 12:53:00
9:53 AM,79.0,64.9,62,30.16,10.0,SSW,4.6,-,N/A,,Clear,200,2013-06-24 13:53:00
10:53 AM,82.9,64.9,54,30.14,10.0,SW,5.8,-,N/A,,Clear,220,2013-06-24 14:53:00
11:53 AM,84.0,64.9,53,30.13,10.0,SW,3.5,-,N/A,,Partly Cloudy,220,2013-06-24 15:53:00
12:53 PM,86.0,64.9,49,30.12,10.0,SSW,8.1,-,N/A,,Mostly Cloudy,210,2013-06-24 16:53:00
1:53 PM,86.0,64.0,48,30.10,10.0,WSW,9.2,-,N/A,,Partly Cloudy,250,2013-06-24 17:53:00
2:53 PM,82.0,64.9,56,30.08,10.0,West,8.1,-,N/A,,Mostly Cloudy,260,2013-06-24 18:53:00
3:53 PM,86.0,63.0,46,30.06,10.0,Variable,3.5,-,N/A,,Clear,0,2013-06-24 19:53:00
4:34 PM,84.2,62.6,48,30.07,10.0,West,8.1,-,N/A,Thunderstorm,Scattered Clouds,260,2013-06-24 20:34:00
4:53 PM,78.1,64.0,62,30.05,10.0,WNW,11.5,20.7,N/A,Thunderstorm,Thunderstorm,290,2013-06-24 20:53:00
5:12 PM,77.0,64.4,65,30.07,8.0,WNW,8.1,-,0.00,Rain,Light Rain,300,2013-06-24 21:12:00
5:53 PM,80.1,66.9,64,30.04,10.0,WSW,5.8,-,0.00,,Partly Cloudy,250,2013-06-24 21:53:00
6:53 PM,82.0,66.0,58,30.02,10.0,WSW,5.8,-,N/A,,Clear,250,2013-06-24 22:53:00
7:53 PM,81.0,66.9,62,30.03,10.0,SSW,4.6,-,N/A,,Clear,210,2013-06-24 23:53:00
8:53 PM,79.0,66.9,66,30.04,10.0,Calm,Calm,-,N/A,,Clear,0,2013-06-25 00:53:00
9:53 PM,75.9,66.9,74,30.03,10.0,South,3.5,-,N/A,,Clear,180,2013-06-25 01:53:00
10:53 PM,73.9,66.9,79,30.05,9.0,South,6.9,-,N/A,,Clear,190,2013-06-25 02:53:00
11:53 PM,73.9,66.9,79,30.06,10.0,SSW,5.8,-,N/A,,Mostly Cloudy,210,2013-06-25 03:53:00